OPS 4682 DEB, 19593

Orbit data source: Space-Track

OPS 4682 DEB, 19593 is space debris in LEO originally from a launch on Sat, 03 Apr 1965 UTC launched from the Air Force Western Test Range (AFWTR). Debris objects in space refer to the collection of defunct objects orbiting the Earth. Examples of debris include non-operational satellites, rocket bodies, and fragments generated from explosions, collisions, or faulty payload assembly.

Loading next visibility...
Identifier
19593, 1965-027AW
Orbit
LEO
Country
Flag of USUS
Related business
Manufacturer
Unknown
Mission
Spacecraft
Bus & Motor
Unknown
Mass
Unknown
Launch date (UTC)
1965-04-03 (61 years ago)
Launch vehicle
Unknown
Launch site
Air Force Western Test Range (AFWTR)
Object type
Payload
Rocket body
Debris
Shape & HBR
Unknown shape, 0.1 m
Radar Cross Section
Small (<0.1 m²)

Expand to show TLE details & history
Last TLE update: 1 day ago

TLE from 1 day ago
0 OPS 4682 DEB
1 19593U 65027AW  26035.37035758  .00000185  00000-0  62468-3 0  9994
2 19593  90.2430   3.6468 0030132 104.5140  48.6527 12.95787951784913
Epoch: 2026-02-04T08:53Z
TLE epoch observation values (Epoch: 2026-02-04T08:53:18.894Z)
Latitude
26.60553°
Longitude
-84.09873°
Altitude
1,266.665 km
Speed
7.232 km/s
True Right ascension
12h 15m 04s
True Declination
26° 28' 38"
Sunlit
Object was in full shadow at epoch
Visualization orbit readout
Latitude
Unknown
Longitude
Unknown
Altitude
Unknown
Speed
Unknown
Apparent Right ascension
Unknown
Apparent Declination
Unknown
Sunlit
N/A
Visualization observer readout
Local Sidereal Time
13:53:31
Azimuth
Unknown
Elevation
Unknown
Doppler factor
Unknown
Orbital elements
Apogee altitude
1,298.83 km
Perigee altitude
1,252.705 km
Semi-major axis
7,653.905 km
Eccentricity
0.00301
Inclination
90.243°
RAAN
3.6468°
Arg. of periapsis
104.514°
True anomaly
48.91256°
Mean anomaly
48.6527°
Eccentric anomaly
48.78257°
Mean motion
3.2413 °/min
Orbital period
111.07 mins
BSTAR
0.00062468
Loading maneuver chart data...
Computing Atmospheric mass density...
Loading historical data...
Loading historical data...
Loading historical data...
Loading historical data...
Loading historical data...
Loading historical data...
Loading historical data...

Documentation

Showing up to 5 results
|